Location: Marcé
(47.5801°N, 0.3280°W)
Time: 07:33:24
(UTC+01:00)

Vanguard 1 Rocket - Pass Details

Date: 07 December 2021
Orbit: 651 x 4224 km, 34.3° (Epoch: 23 January)

Event Time Altitude Azimuth Distance (km) Brightness Sun altitude
Exits shadow 06:03:32 26° 245° (WSW) 3,854 10.1 -24.6°
Maximum altitude 06:12:23 49° 188° (S) 3,674 10.3 -23.2°
Drops below altitude 10° 06:34:16 10° 123° (ESE) 7,307 13.0 -19.5°
Sets 06:40:41 0° 119° (ESE) 8,458 13.8 -18.5°
